Location: Costa Mesa
(33.6411°N, 117.9187°W)
Time: 02:20:57
(UTC+00:00)

H-2A R/B - Pass Details

Date: 10 September 2024
Orbit: 346 x 353 km, 97.4° (Epoch: 10 October)

Event Time Altitude Azimuth Distance (km) Brightness Sun altitude
Rises 12:38:19 0° 22° (NNE) 2,155 6.4 -11.9°
Reaches altitude 10° 12:40:21 10° 33° (NNE) 1,312 5.5 -11.4°
Maximum altitude 12:42:53 31° 99° (E) 646 4.0 -10.9°
Drops below altitude 10° 12:45:25 10° 164° (SSE) 1,318 4.8 -10.4°
Sets 12:47:28 0° 175° (S) 2,167 5.8 -10.0°
